Weather History for Tucson, AZ

Change the Weather History Date:

Friday, April 26, 2013

  Actual Average Record
Temperature  
Mean Temperature 71 °F 70 °F  
Max Temperature 88 °F 85 °F 99 °F (1992)
Min Temperature 53 °F 55 °F 34 °F (1921)
Degree Days  
Heating Degree Days 0 1  
Month to date heating degree days 27 56  
Since 1 July heating degree days 1363 1502  
Cooling Degree Days 6 6  
Month to date cooling degree days 132 95  
Year to date cooling degree days 223 128  
Growing Degree Days 20 (Base 50)    
Moisture  
Dew Point 21 °F    
Average Humidity 17    
Maximum Humidity 29    
Minimum Humidity 4    
Precipitation  
Precipitation 0.00 in 0.01 in 0.03 in (1985)
Month to date precipitation 0.12 0.29  
Year to date precipitation 1.73 2.82  
Snow  
Snow 0.00 in - - ()
Month to date snowfall 0.0  
Snow Depth 0.00 in    
Sea Level Pressure  
Sea Level Pressure 30.00 in    
Wind  
Wind Speed 7 mph (WNW)    
Max Wind Speed 14 mph    
Max Gust Speed 18 mph    
Visibility 10 miles    
Events      
T = Trace of Precipitation, MM = Missing Value Source: NWS Daily Summary

Daily Weather History Graph

Daily Weather History Graph

Search for Another Location

Airport:

Trip Planner

Search our weather history database for the weather conditions in past years. The results will help you decide how hot, cold, wet, or windy it might be!

Date:

Astronomy

Apr. 26, 2013 Rise Set
Actual Time 5:42 AM MST 7:01 PM MST
Civil Twilight 5:16 AM MST 7:27 PM MST
Nautical Twilight 4:45 AM MST 7:57 PM MST
Astronomical Twilight 4:14 AM MST 8:29 PM MST
Moon 8:23 PM MST (4/26) 6:15 AM MST (4/26)
Length of Visible Light 14h 10m
Length of Day
13h 18m
Full, 99% of the Moon is Illuminated
Apr 26
Full
May 2
Last Quarter
May 9
New
May 17
First Quarter
May 24
Full

Hourly Weather History & Observations

Time (MST) Temp. Dew Point Humidity Pressure Visibility Wind Dir Wind Speed Gust Speed Precip Events Conditions
12:53 AM 60.1 °F 23.0 °F 24% 29.98 in 10.0 mi SSE 4.6 mph - N/A   Clear
1:53 AM 59.0 °F 24.1 °F 26% 29.99 in 10.0 mi South 4.6 mph - N/A   Clear
2:53 AM 57.0 °F 23.0 °F 27% 29.99 in 10.0 mi SE 9.2 mph - N/A   Clear
3:53 AM 55.0 °F 23.0 °F 29% 30.01 in 10.0 mi SE 8.1 mph - N/A   Clear
4:53 AM 55.0 °F 23.0 °F 29% 30.01 in 10.0 mi SE 5.8 mph - N/A   Clear
5:53 AM 53.1 °F 23.0 °F 31% 30.03 in 10.0 mi SE 8.1 mph - N/A   Clear
6:53 AM 57.0 °F 24.1 °F 28% 30.06 in 10.0 mi SSE 8.1 mph - N/A   Clear
7:53 AM 61.0 °F 25.0 °F 25% 30.06 in 10.0 mi SSE 6.9 mph - N/A   Clear
8:53 AM 66.9 °F 24.1 °F 20% 30.06 in 10.0 mi SW 3.5 mph - N/A   Clear
9:53 AM 73.9 °F 25.0 °F 16% 30.06 in 10.0 mi Calm Calm - N/A   Clear
10:53 AM 77.0 °F 23.0 °F 13% 30.05 in 10.0 mi North 5.8 mph - N/A   Clear
11:53 AM 81.0 °F 19.9 °F 10% 30.03 in 10.0 mi Variable 4.6 mph - N/A   Clear
12:53 PM 84.0 °F 14.0 °F 7% 30.01 in 10.0 mi NNE 6.9 mph - N/A   Clear
1:53 PM 86.0 °F 1.0 °F 4% 29.99 in 10.0 mi WNW 4.6 mph - N/A   Clear
2:53 PM 86.0 °F 9.0 °F 5% 29.97 in 10.0 mi NNW 9.2 mph - N/A   Clear
3:53 PM 86.0 °F 16.0 °F 7% 29.95 in 10.0 mi WNW 3.5 mph - N/A   Clear
4:53 PM 86.0 °F 19.0 °F 8% 29.95 in 10.0 mi NNW 11.5 mph 16.1 mph N/A   Clear
5:53 PM 84.9 °F 19.0 °F 9% 29.95 in 10.0 mi North 11.5 mph - N/A   Clear
6:53 PM 82.0 °F 18.0 °F 9% 29.96 in 10.0 mi NNW 9.2 mph - N/A   Clear
7:53 PM 78.1 °F 19.9 °F 11% 29.97 in 10.0 mi NNW 6.9 mph - N/A   Clear
8:53 PM 77.0 °F 19.9 °F 12% 29.99 in 10.0 mi NNW 8.1 mph - N/A   Clear
9:53 PM 73.0 °F 24.1 °F 16% 30.00 in 10.0 mi WNW 4.6 mph - N/A   Clear
10:53 PM 70.0 °F 24.1 °F 18% 30.01 in 10.0 mi WSW 5.8 mph - N/A   Clear
11:53 PM 66.9 °F 25.0 °F 21% 30.01 in 10.0 mi West 6.9 mph - N/A   Clear